User: anonymous   Login
Location: Brno
(49.2000°N, 16.6330°E)
Time: 03:40:49
(UTC+02:00)
Language:

BREEZE M DEB (TANK) - Orbit

View from above orbital plane
View from above orbital plane
View from above satellite
View from above satellite

Ground track
Ground track

The orbit data is extracted from the following two-line orbital elements,

1 28359U 04022B   16125.21784908 +.00002534 +00000-0 +30571-3 0  9992
2 28359 049.5410 094.8961 4677722 240.5563 065.0738 06.18184371259979
Epoch (UTC): 04 May 2016 05:13:42
Eccentricity: 0.4677722
inclination: 49.5410°
perigee height: 296 km
apogee height: 12029 km
right ascension of ascending node: 94.8961°
argument of perigee: 240.5563°
revolutions per day: 6.18184371
mean anomaly at epoch: 65.0738°
orbit number at epoch: 25997

The dashed part of the orbit path shows where the satellite is in the earth's shadow,  

DLR